When you browse on this site, cookies collect data to enhance your experience and personalize the content and advertising you see.
Visit our Privacy Policy to learn more. By continuing to use the site, you agree to this use of cookies and data.
  • en Suisse
  • Liste des pays
  • À 7 jours
  • Température de l'eau
  • Carte météo
  • Widgets météo
  • user-avatar
    Se connecter

    Météo par heure à Goiania

    Ce jour, 10 Avril, Vendredi

    Heure Température Précipitation Vent Pression Humidité
    00:00 +22°C° 0 mm 1 m/s 698 mmHg 94%
    01:00 +22°C° 0 mm 1 m/s 698 mmHg 94%
    02:00 +22°C° 0 mm 1 m/s 698 mmHg 95%
    03:00 +21°C° 0 mm 1 m/s 698 mmHg 95%
    04:00 +21°C° 0 mm 1 m/s 697 mmHg 94%
    05:00 +21°C° 0 mm 1 m/s 697 mmHg 94%
    06:00 +20°C° 0 mm 1 m/s 697 mmHg 94%
    07:00 +22°C° 0 mm 1 m/s 698 mmHg 90%
    08:00 +23°C° 0 mm 1 m/s 699 mmHg 86%
    09:00 +25°C° 0 mm 1 m/s 700 mmHg 81%
    10:00 +27°C° 0 mm 1 m/s 699 mmHg 75%
    11:00 +27°C° 0 mm 0 m/s 699 mmHg 69%
    12:00 +29°C° 0 mm 0 m/s 699 mmHg 63%
    13:00 +30°C° 0.2 mm 1 m/s 698 mmHg 65%
    14:00 +30°C° 0.2 mm 1 m/s 698 mmHg 67%
    15:00 +29°C° 0.2 mm 2 m/s 697 mmHg 70%
    16:00 +28°C° 0.5 mm 2 m/s 697 mmHg 75%
    17:00 +27°C° 0.5 mm 2 m/s 696 mmHg 81%
    18:00 +25°C° 0.5 mm 2 m/s 696 mmHg 86%
    19:00 +24°C° 0 mm 2 m/s 697 mmHg 87%
    20:00 +24°C° 0 mm 2 m/s 697 mmHg 88%
    21:00 +23°C° 0 mm 1 m/s 698 mmHg 89%
    22:00 +22°C° 0 mm 1 m/s 698 mmHg 90%
    23:00 +22°C° 0 mm 1 m/s 698 mmHg 91%

    Demain, 11 Avril, Samedi

    Heure Température Précipitation Vent Pression Humidité
    00:00 +21°C° 0 mm 1 m/s 698 mmHg 92%
    01:00 +21°C° 0 mm 1 m/s 698 mmHg 92%
    02:00 +21°C° 0 mm 1 m/s 697 mmHg 91%
    03:00 +20°C° 0 mm 1 m/s 697 mmHg 91%
    04:00 +20°C° 0 mm 1 m/s 697 mmHg 91%
    05:00 +20°C° 0 mm 1 m/s 697 mmHg 92%
    06:00 +20°C° 0 mm 1 m/s 697 mmHg 92%
    07:00 +21°C° 0 mm 1 m/s 698 mmHg 88%
    08:00 +23°C° 0 mm 1 m/s 698 mmHg 85%
    09:00 +25°C° 0 mm 1 m/s 699 mmHg 81%
    10:00 +27°C° 0 mm 1 m/s 699 mmHg 75%
    11:00 +29°C° 0 mm 1 m/s 699 mmHg 70%
    12:00 +30°C° 0 mm 1 m/s 699 mmHg 64%
    13:00 +30°C° 0.3 mm 1 m/s 698 mmHg 66%
    14:00 +30°C° 0.3 mm 2 m/s 698 mmHg 68%
    15:00 +30°C° 0.3 mm 2 m/s 697 mmHg 71%
    16:00 +28°C° 0.5 mm 2 m/s 697 mmHg 76%
    17:00 +27°C° 0.5 mm 2 m/s 697 mmHg 81%
    18:00 +26°C° 0.5 mm 2 m/s 697 mmHg 87%
    19:00 +25°C° 0 mm 1 m/s 697 mmHg 88%
    20:00 +24°C° 0 mm 1 m/s 698 mmHg 89%
    21:00 +23°C° 0 mm 1 m/s 699 mmHg 91%
    22:00 +23°C° 0 mm 1 m/s 698 mmHg 92%
    23:00 +22°C° 0 mm 1 m/s 698 mmHg 93%

    Après-demain, 12 Avril, Dimanche

    Heure Température Précipitation Vent Pression Humidité
    00:00 +22°C° 0 mm 1 m/s 698 mmHg 94%
    01:00 +22°C° 0 mm 1 m/s 698 mmHg 94%
    02:00 +22°C° 0 mm 1 m/s 698 mmHg 94%
    03:00 +21°C° 0 mm 1 m/s 698 mmHg 94%
    04:00 +21°C° 0 mm 1 m/s 698 mmHg 94%
    05:00 +21°C° 0 mm 1 m/s 698 mmHg 94%
    06:00 +21°C° 0 mm 1 m/s 698 mmHg 94%
    07:00 +22°C° 0 mm 1 m/s 698 mmHg 91%
    08:00 +24°C° 0 mm 1 m/s 699 mmHg 87%
    09:00 +25°C° 0 mm 1 m/s 700 mmHg 84%
    10:00 +27°C° 0 mm 1 m/s 700 mmHg 78%
    11:00 +28°C° 0 mm 1 m/s 699 mmHg 71%
    12:00 +30°C° 0 mm 1 m/s 699 mmHg 65%
    13:00 +30°C° 0.1 mm 1 m/s 699 mmHg 64%
    14:00 +30°C° 0.1 mm 1 m/s 698 mmHg 63%
    15:00 +31°C° 0.1 mm 1 m/s 697 mmHg 63%
    16:00 +29°C° 0.3 mm 1 m/s 697 mmHg 70%
    17:00 +27°C° 0.3 mm 1 m/s 697 mmHg 77%
    18:00 +26°C° 0.3 mm 1 m/s 697 mmHg 84%
    19:00 +25°C° 0.1 mm 1 m/s 697 mmHg 86%
    20:00 +24°C° 0.1 mm 1 m/s 698 mmHg 87%
    21:00 +24°C° 0.1 mm 1 m/s 698 mmHg 89%
    22:00 +23°C° 0 mm 1 m/s 698 mmHg 90%
    23:00 +23°C° 0 mm 1 m/s 698 mmHg 91%

    13 Avril, Lundi

    Heure Température Précipitation Vent Pression Humidité
    00:00 +23°C° 0 mm 1 m/s 698 mmHg 91%
    01:00 +22°C° 0 mm 1 m/s 698 mmHg 92%
    02:00 +22°C° 0 mm 1 m/s 698 mmHg 92%
    03:00 +22°C° 0 mm 1 m/s 698 mmHg 93%
    04:00 +22°C° 0 mm 1 m/s 698 mmHg 93%
    05:00 +22°C° 0 mm 1 m/s 698 mmHg 93%
    06:00 +22°C° 0 mm 1 m/s 698 mmHg 93%
    07:00 +23°C° 0 mm 1 m/s 698 mmHg 90%
    08:00 +24°C° 0 mm 2 m/s 699 mmHg 88%
    09:00 +26°C° 0 mm 2 m/s 699 mmHg 85%
    10:00 +27°C° 0 mm 2 m/s 699 mmHg 78%
    11:00 +28°C° 0 mm 2 m/s 699 mmHg 72%
    12:00 +30°C° 0 mm 2 m/s 699 mmHg 66%
    13:00 +30°C° 0 mm 2 m/s 698 mmHg 64%
    14:00 +31°C° 0 mm 1 m/s 698 mmHg 63%
    15:00 +31°C° 0 mm 1 m/s 697 mmHg 61%
    16:00 +29°C° 0.1 mm 1 m/s 697 mmHg 67%
    17:00 +28°C° 0.1 mm 1 m/s 697 mmHg 73%
    18:00 +26°C° 0.1 mm 1 m/s 696 mmHg 79%
    19:00 +26°C° 0 mm 1 m/s 697 mmHg 83%
    20:00 +25°C° 0 mm 1 m/s 697 mmHg 86%
    21:00 +24°C° 0 mm 2 m/s 697 mmHg 90%
    22:00 +23°C° 0 mm 2 m/s 697 mmHg 90%
    23:00 +23°C° 0 mm 2 m/s 697 mmHg 90%

    14 Avril, Mardi

    Heure Température Précipitation Vent Pression Humidité
    00:00 +23°C° 0 mm 2 m/s 698 mmHg 90%
    01:00 +21°C° 0 mm 2 m/s 697 mmHg 90%
    02:00 +21°C° 0 mm 2 m/s 697 mmHg 91%
    03:00 +21°C° 0 mm 2 m/s 697 mmHg 92%
    04:00 +21°C° 0 mm 2 m/s 697 mmHg 92%
    05:00 +21°C° 0 mm 2 m/s 697 mmHg 92%
    06:00 +21°C° 0 mm 2 m/s 697 mmHg 92%
    07:00 +22°C° 0 mm 3 m/s 697 mmHg 87%
    08:00 +25°C° 0 mm 3 m/s 698 mmHg 82%
    09:00 +26°C° 0 mm 3 m/s 698 mmHg 78%
    10:00 +27°C° 0 mm 3 m/s 698 mmHg 73%
    11:00 +28°C° 0 mm 3 m/s 698 mmHg 69%
    12:00 +30°C° 0 mm 3 m/s 698 mmHg 65%
    13:00 +30°C° 0.2 mm 3 m/s 698 mmHg 66%
    14:00 +30°C° 0.2 mm 2 m/s 697 mmHg 66%
    15:00 +30°C° 0.2 mm 2 m/s 696 mmHg 67%
    16:00 +28°C° 0.5 mm 1 m/s 696 mmHg 72%
    17:00 +27°C° 0.5 mm 1 m/s 696 mmHg 77%
    18:00 +26°C° 0.5 mm 1 m/s 696 mmHg 82%
    19:00 +25°C° 0.6 mm 1 m/s 696 mmHg 84%
    20:00 +24°C° 0.6 mm 1 m/s 697 mmHg 86%
    21:00 +22°C° 0.6 mm 0 m/s 697 mmHg 88%
    22:00 +23°C° 2.6 mm 1 m/s 697 mmHg 89%
    23:00 +23°C° 2.6 mm 1 m/s 698 mmHg 91%

    15 Avril, Mercredi

    Heure Température Précipitation Vent Pression Humidité
    00:00 +23°C° 2.6 mm 1 m/s 698 mmHg 92%
    01:00 +22°C° 0.8 mm 1 m/s 698 mmHg 92%
    02:00 +22°C° 0.8 mm 1 m/s 697 mmHg 92%
    03:00 +22°C° 0.8 mm 1 m/s 697 mmHg 92%
    04:00 +22°C° 0 mm 1 m/s 697 mmHg 92%
    05:00 +22°C° 0 mm 1 m/s 697 mmHg 93%
    06:00 +22°C° 0 mm 1 m/s 697 mmHg 93%
    07:00 +23°C° 0 mm 1 m/s 698 mmHg 90%
    08:00 +24°C° 0 mm 1 m/s 698 mmHg 88%
    09:00 +25°C° 0 mm 1 m/s 699 mmHg 85%
    10:00 +25°C° 0.2 mm 1 m/s 699 mmHg 82%
    11:00 +26°C° 0.2 mm 1 m/s 699 mmHg 79%
    12:00 +25°C° 0.2 mm 0 m/s 699 mmHg 75%
    13:00 +25°C° 0.4 mm 0 m/s 698 mmHg 77%
    14:00 +27°C° 0.4 mm 1 m/s 698 mmHg 78%
    15:00 +27°C° 0.4 mm 1 m/s 697 mmHg 79%
    16:00 +26°C° 0.5 mm 1 m/s 697 mmHg 82%
    17:00 +25°C° 0.5 mm 1 m/s 698 mmHg 85%
    18:00 +24°C° 0.5 mm 1 m/s 698 mmHg 88%
    19:00 +23°C° 0.9 mm 1 m/s 698 mmHg 89%
    20:00 +23°C° 0.9 mm 1 m/s 699 mmHg 91%
    21:00 +22°C° 0.9 mm 1 m/s 699 mmHg 92%
    22:00 +22°C° 0.8 mm 1 m/s 699 mmHg 93%
    23:00 +22°C° 0.8 mm 1 m/s 699 mmHg 94%
    Voir plus